Weather History for KAEX - November, 2012

Change the Weather History Date:

Friday, November 2, 2012

  Actual Average Record
Temperature  
Mean Temperature 73 °F 62 °F  
Max Temperature 86 °F 75 °F 87 °F (1961)
Min Temperature 60 °F 49 °F 30 °F (1963)
Degree Days  
Heating Degree Days 0 5  
Month to date heating degree days 0 10  
Since 1 July heating degree days 95 83  
Cooling Degree Days 7 2  
Month to date cooling degree days 4  
Year to date cooling degree days 2490  
Growing Degree Days 22 (Base 50)    
Moisture  
Dew Point 61 °F    
Average Humidity 69    
Maximum Humidity 100    
Minimum Humidity 37    
Precipitation  
Precipitation 0.00 in 0.12 in 3.07 in (1977)
Month to date precipitation 0.00 0.17  
Year to date precipitation 47.52 44.48  
Snow  
Snow 0.00 in - 0.00 in ()
Month to date snowfall 0.0  
Since 1 July snowfall 0.0  
Since 1 September snowfall 0.0  
Snow Depth 0.00 in    
Sea Level Pressure  
Sea Level Pressure 30.01 in    
Wind  
Wind Speed 5 mph (SW)    
Max Wind Speed 13 mph    
Max Gust Speed 17 mph    
Visibility 7 miles    
Events Fog    
T = Trace of Precipitation, MM = Missing Value Source: NWS Daily Summary

Daily Weather History Graph

Daily Weather History Graph

Search for Another Location

Airport or City:

Trip Planner

Search our weather history database for the weather conditions in past years. The results will help you decide how hot, cold, wet, or windy it might be!

Date:

Astronomy

Nov. 02, 2012 Rise Set
Actual Time 7:27 AM CDT 6:20 PM CDT
Civil Twilight 7:02 AM CDT 6:45 PM CDT
Nautical Twilight 6:33 AM CDT 7:13 PM CDT
Astronomical Twilight 6:04 AM CDT 7:42 PM CDT
Moon 9:15 PM CDT (11/2) 10:40 AM CDT (11/2)
Length of Visible Light 11h 43m
Length of Day
10h 52m
Waning Gibbous, 87% of the Moon is Illuminated
Nov 2
Waning Gibbous
Nov 6
Last Quarter
Nov 13
New
Nov 20
First Quarter
Nov 28
Full

Hourly Weather History & Observations

Time (CDT) Temp. Heat Index Dew Point Humidity Pressure Visibility Wind Dir Wind Speed Gust Speed Precip Events Conditions
12:53 AM 60.1 °F - 55.9 °F 86% 29.99 in 10.0 mi Calm Calm - N/A   Clear
1:53 AM 62.1 °F - 57.0 °F 84% 29.99 in 10.0 mi SSW 5.8 mph - N/A   Clear
2:53 AM 62.1 °F - 57.0 °F 84% 29.99 in 10.0 mi SW 3.5 mph - N/A   Clear
3:53 AM 62.1 °F - 60.1 °F 93% 29.99 in 10.0 mi SW 3.5 mph - N/A   Clear
4:53 AM 62.1 °F - 60.1 °F 93% 29.99 in 7.0 mi WSW 3.5 mph - N/A   Clear
5:06 AM 62.6 °F - 60.8 °F 94% 29.98 in 2.0 mi Calm Calm - N/A   Partly Cloudy
5:13 AM 62.6 °F - 60.8 °F 94% 29.99 in 3.0 mi Calm Calm - N/A   Mostly Cloudy
5:33 AM 60.8 °F - 59.0 °F 94% 29.99 in 3.0 mi Calm Calm - N/A   Scattered Clouds
5:45 AM 60.8 °F - 60.8 °F 100% 29.99 in 0.5 mi Calm Calm - N/A Fog Fog
5:53 AM 62.1 °F - 62.1 °F 100% 30.00 in 0.5 mi Calm Calm - N/A Fog Fog
6:24 AM 62.6 °F - 62.6 °F 100% 30.00 in 1.5 mi Calm Calm - N/A   Overcast
6:29 AM 64.4 °F - 62.6 °F 94% 30.00 in 3.0 mi Calm Calm - N/A   Overcast
6:53 AM 64.0 °F - 63.0 °F 96% 30.01 in 3.0 mi Calm Calm - N/A   Overcast
7:06 AM 64.4 °F - 62.6 °F 94% 30.00 in 1.8 mi Calm Calm - N/A   Overcast
7:25 AM 62.6 °F - 62.6 °F 100% 30.01 in 2.5 mi Calm Calm - N/A   Overcast
7:34 AM 62.6 °F - 62.6 °F 100% 30.01 in 3.0 mi Calm Calm - N/A   Overcast
7:41 AM 62.6 °F - 62.6 °F 100% 30.01 in 1.8 mi Calm Calm - N/A   Overcast
7:53 AM 63.0 °F - 62.1 °F 97% 30.03 in 0.8 mi Calm Calm - N/A   Overcast
8:02 AM 64.4 °F - 62.6 °F 94% 30.02 in 3.0 mi Calm Calm - N/A   Overcast
8:53 AM 66.0 °F - 64.0 °F 93% 30.05 in 9.0 mi SW 6.9 mph - N/A   Mostly Cloudy
9:18 AM 68.0 °F - 64.4 °F 88% 30.05 in 10.0 mi WSW 6.9 mph - N/A   Scattered Clouds
9:53 AM 71.1 °F - 64.0 °F 78% 30.07 in 10.0 mi West 8.1 mph - N/A   Partly Cloudy
10:53 AM 75.0 °F - 64.0 °F 69% 30.07 in 10.0 mi Variable 4.6 mph - N/A   Clear
11:53 AM 79.0 °F - 62.1 °F 56% 30.06 in 10.0 mi WSW 8.1 mph - N/A   Clear
12:53 PM 82.0 °F 83.0 °F 62.1 °F 51% 30.03 in 10.0 mi WSW 8.1 mph - N/A   Clear
1:53 PM 84.0 °F 84.4 °F 61.0 °F 46% 30.00 in 10.0 mi SSW 4.6 mph - N/A   Clear
2:53 PM 84.9 °F 84.4 °F 59.0 °F 41% 29.99 in 10.0 mi Variable 3.5 mph - N/A   Clear
3:53 PM 84.9 °F 84.2 °F 57.9 °F 40% 29.97 in 10.0 mi Calm Calm - N/A   Clear
4:53 PM 84.9 °F 83.7 °F 55.9 °F 37% 29.97 in 10.0 mi SW 4.6 mph - N/A   Clear
5:53 PM 82.9 °F 82.1 °F 55.9 °F 39% 29.97 in 10.0 mi SW 4.6 mph - N/A   Clear
6:53 PM 77.0 °F - 57.9 °F 52% 29.99 in 10.0 mi South 5.8 mph - N/A   Clear
7:53 PM 73.0 °F - 59.0 °F 61% 30.00 in 10.0 mi South 4.6 mph - N/A   Clear
8:53 PM 71.1 °F - 59.0 °F 66% 30.01 in 10.0 mi South 6.9 mph - N/A   Clear
9:53 PM 71.1 °F - 62.1 °F 73% 30.03 in 10.0 mi SSW 9.2 mph - N/A   Clear
10:53 PM 70.0 °F - 62.1 °F 76% 30.04 in 10.0 mi SSW 6.9 mph - N/A   Clear